#timestamp,LO_Frequency,Hit,StdDev 
1540432815.4,286046998.3,P
1540432835.3,286047000.6,N
1540432855.1,286047000.3,N
1540432856.0,286047000.3,N
1540432875.8,286047000.8,N
1540432895.7,286046998.5,N
1540432915.5,286047001.0,N
1540432935.3,286046998.8,N
1540432955.2,286046999.2,N
1540432975.0,286046998.4,N
1540432975.9,286046998.4,N
1540432995.8,286046998.9,N
1540433015.6,286046999.3,N
1540433035.4,286046999.5,N
1540433055.3,286046999.4,N
1540433075.1,286046999.6,N
1540433095.8,286046999.5,N
1540433115.7,286046999.5,N
1540433135.5,286046999.5,N
1540433155.4,286046999.1,N
1540433175.2,286046998.1,N
1540433195.0,286046998.5,N
1540433195.9,286046998.5,N
1540433215.8,286047000.8,N
1540433235.6,286046999.8,N
1540433255.4,286047000.9,N
1540433275.3,286047000.3,N
1540433295.1,286046999.1,N
1540433315.9,286046998.6,N
1540433335.7,286046999.2,N
1540433355.5,286046998.9,N
1540433375.4,286046998.5,N
1540433395.2,286047000.1,N
1540433415.0,286046998.9,N
1540433415.9,286046998.9,N
1540433435.8,286046998.6,N
1540433455.6,286046998.5,N
1540433475.5,286046998.3,N
1540433495.3,286046998.1,N
1540433515.1,286046998.7,N
1540433535.9,286046998.6,N
1540433555.7,286046998.5,N
1540433575.5,286047000.9,N
1540433595.4,286046999.3,N
1540433615.2,286046998.7,N
1540433635.1,286047000.8,N
1540433636.0,286047000.8,N
1540433655.8,286046999.1,N
1540433675.6,286047001.0,N
1540433695.5,286047002.7,N
1540433715.3,286047002.1,N
1540433735.1,286046998.6,N
1540433755.9,286047001.2,N
1540433775.7,286046998.5,N
1540433795.6,286047001.1,N
1540433815.4,286046998.5,N
1540433835.2,286046998.1,N
1540433855.1,286046999.3,N
1540433856.0,286046999.3,N
1540433875.8,286047001.2,N
1540433895.7,286047000.9,N
1540433915.5,286047001.1,N
1540433935.3,286046998.6,N
1540433955.2,286047000.5,N
1540433975.9,286046999.9,N
1540433995.7,286047001.1,N
1540434015.6,286047000.4,N
1540434035.4,286046999.9,N
1540434055.2,286047000.1,N
1540434075.1,286047000.6,N
1540434076.0,286047000.6,N
1540434095.8,286046999.9,N
1540434115.7,286047002.7,N
1540434135.5,286047001.5,N
1540434155.3,286047001.3,N
1540434175.2,286047001.8,N
1540434195.0,286047001.3,N
1540434195.9,286047001.3,N
1540434215.7,286046999.8,N
1540434235.6,286047002.4,N
1540434255.4,286047001.4,N
1540434275.3,286047001.8,N
1540434295.1,286047000.1,N
1540434296.0,286047000.1,N
1540434315.8,286047000.9,N
1540434335.7,286046998.5,N
1540434355.5,286046998.8,N
1540434375.3,286046998.3,N
1540434395.2,286046999.0,N
1540434415.0,286046999.4,N
1540434415.9,286046999.4,N
1540434435.8,286046999.2,N
1540434455.6,286046998.8,N
1540434475.4,286046999.5,N
1540434495.3,286046999.2,N
1540434515.1,286046996.9,N
1540434535.8,286046997.5,N
1540434555.7,286046995.8,Y
1540434575.5,286046997.9,P
1540434595.4,286046995.5,P
1540434615.2,286046997.4,N
1540434635.0,286046997.7,N
1540434635.9,286046997.7,N
1540434655.8,286046999.5,N
1540434675.6,286046998.9,N
1540434695.4,286047000.7,N
1540434715.3,286046999.9,N
1540434735.1,286047000.5,N
1540434755.9,286046998.5,N
1540434775.7,286046998.5,N
1540434795.5,286047000.5,N
1540434815.4,286047000.2,N
1540434835.2,286047000.4,N
1540434855.0,286047000.7,N
1540434855.9,286047000.7,N
1540434875.8,286047000.6,N
1540434895.6,286046996.9,N
1540434915.5,286046997.1,N
1540434935.3,286046996.9,N
1540434955.1,286046999.1,N
1540434975.9,286046996.5,N
1540434995.7,286046999.6,N
1540435015.0,286046998.4,N
1540435015.9,286046998.4,N
1540435035.8,286047000.8,N
1540435055.6,286046999.1,N
1540435075.4,286046996.5,N
1540435095.3,286046999.0,N
1540435115.1,286046999.5,N
1540435135.9,286046999.3,N
1540435155.7,286046999.2,N
1540435175.5,286046998.6,N
1540435195.4,286046998.3,N
1540435215.2,286046998.4,N
1540435235.0,286046997.2,N
1540435236.0,286046997.2,N
1540435255.8,286046995.4,Y
1540435275.6,286046998.0,P
1540435295.5,286046997.9,P
1540435315.3,286046994.9,P
1540435335.2,286046993.3,Y
1540435355.9,286046998.4,P
1540435375.7,286046996.9,P
1540435395.6,286046997.4,P
1540435415.4,286046995.3,Y
1540435435.2,286046998.6,P
1540435455.1,286046999.4,N
1540435456.0,286046999.4,N
1540435475.8,286046999.3,N
1540435495.7,286046998.4,N
1540435515.5,286046998.1,N
1540435535.3,286046998.5,N
1540435555.2,286046998.6,N
1540435575.0,286046999.4,N
1540435575.9,286046999.4,N
1540435595.7,286046999.4,N
1540435615.6,286046999.3,N
1540435635.4,286046997.8,Y
1540435655.3,286046999.1,P
1540435675.1,286046998.6,P
1540435695.8,286046999.5,N
1540435715.7,286046998.3,Y
1540435735.5,286047001.1,P
1540435755.4,286047000.2,N
1540435775.2,286046999.9,N
1540435795.0,286046999.7,N
1540435795.9,286046999.7,N
1540435815.8,286047002.4,Y
1540435835.6,286047000.2,P
1540435855.4,286047002.3,P
1540435875.3,286047002.1,N
1540435895.1,286047003.7,Y
1540435915.9,286047003.5,P
1540435935.7,286047004.0,P
1540435955.5,286047004.0,P
1540435975.4,286047001.6,N
1540435995.2,286046999.9,N
1540436015.0,286047002.4,N
1540436015.9,286047002.4,N
1540436035.8,286047002.6,N
1540436055.6,286047002.3,N
1540436075.5,286047000.1,N
1540436095.3,286047000.3,N
1540436115.1,286047000.8,N
1540436135.9,286047000.4,N
1540436155.7,286047000.4,N
1540436175.5,286047000.9,N
1540436195.4,286046998.4,N
1540436215.2,286047000.6,N
1540436235.1,286046998.2,N
1540436236.0,286046998.2,N
1540436255.8,286047001.0,N
1540436275.6,286047002.4,N
1540436295.5,286047002.4,N
1540436315.3,286046998.6,N
1540436335.1,286046999.0,N
1540436355.9,286046996.7,N
1540436375.7,286046995.8,N
1540436395.6,286046996.4,N
